[[{"header":{"parameterUnit":"m.s-1","parameterCategory":2,"la1":30.2991,"la2":30.254,"lo1":-89.0895,"lo2":-89.0444,"dy":0.0017,"dx":0.0017,"nx":28,"ny":28,"refTime":"2025-01-11T03:00:00:Z","depth":"0","parameterNumber":2,"parameterNumberName":"U-component_of_CURRENTS"},"data":[0,0,0,0,0,0,0,0,0,0,0,0,0,0,0,0,0,0,0,0,0,0,0,0,0,0,0,0,0,0,0,0,0,0,0,0,0,0,0,0,0,0,0,0,0,0,0,0,0,0,0,0,0,0,0,0,0,0,0.3929,0.393,0,0.3993,0.3993,0.3994,0.4012,0.4012,0.4012,0.4012,0.401,0.401,0.401,0,0,0,0,0,0,0,0,0,0,0,0,0,0.3845,0.3846,0.3929,0.393,0.3931,0.3993,0.3993,0.3994,0.4012,0.4012,0.4012,0.4012,0.401,0.401,0.401,0,0,0,0,0,0,0,0,0,0,0,0,0,0.3889,0.3847,0.3929,0.395,0.3953,0.3992,0.3993,0.3994,0.4012,0.4012,0.4012,0.4012,0.401,0.401,0.401,0.4011,0,0,0.401,0.401,0,0,0,0,0,0,0,0,0.3887,0.3892,0.3946,0.3949,0.3952,0.3997,0.3963,0.3997,0.4012,0.3986,0.4012,0.4012,0.4002,0.4002,0.4011,0.4011,0.4011,0.401,0.401,0.401,0.401,0,0,0,0,0,0,0,0.3884,0.3889,0.3951,0.3947,0.3951,0.3964,0.397,0.397,0.399,0.3988,0.3991,0.4003,0.4002,0.4011,0.4011,0.4011,0.401,0.401,0.401,0.401,0.4018,0.4018,0,0,0,0,0,0,0.3881,0.3887,0.3949,0.3953,0.3922,0.3966,0.3972,0.398,0.3991,0.3994,0.4003,0.4004,0.4011,0.4011,0.4011,0.4012,0.401,0.401,0.401,0.4017,0.4018,0.4018,0,0,0,0,0,0,0.3879,0.3886,0.3946,0.3924,0.3933,0.3968,0.3976,0.3981,0.3996,0.4004,0.4005,0.4013,0.4011,0.4011,0.4009,0.4012,0.401,0.401,0.4017,0.4017,0.4018,0.4016,0,0,0,0,0,0,0.3876,0.3885,0.389,0.3924,0.3934,0.3968,0.3977,0.3983,0.4005,0.4006,0.4013,0.4012,0.4011,0.4009,0.4009,0.4012,0.401,0.4017,0.4017,0.4018,0.4016,0.4016,0.4017,0,0,0,0,0,0.3873,0.3867,0.3889,0.3897,0.394,0.3968,0.3974,0.3997,0.4005,0.4009,0.4012,0.4012,0.4012,0.4009,0.4009,0.4012,0.4017,0.4017,0.4018,0.4016,0.4016,0.4017,0,0,0,0,0,0,0.3814,0.387,0.3895,0.3902,0.3938,0.3973,0.3975,0.4,0.4008,0.4005,0.4012,0.4011,0.4019,0.4013,0.401,0.4017,0.4016,0.4016,0.4014,0.4015,0.4015,0.4033,0.401,0,0,0,0,0,0.3811,0.3828,0.3882,0.3885,0.3904,0.3945,0.396,0.3981,0.3996,0.4001,0.4003,0.4007,0.4022,0.4015,0.4024,0.4017,0.4047,0.4021,0.4021,0.4022,0.4037,0.408,0.4086,0.402,0.402,0.402,0,0,0.3788,0.382,0.3829,0.3876,0.3901,0.3923,0.3951,0.3972,0.3989,0.3997,0.3998,0.4013,0.4024,0.4026,0.4027,0.4018,0.4056,0.4022,0.4022,0.4038,0.4081,0.4087,0.4093,0.402,0.402,0.402,0,0,0.3747,0.378,0.3788,0.382,0.3869,0.39,0.391,0.3949,0.3966,0.3979,0.3997,0.4013,0.4013,0.4028,0.4037,0.4044,0.4068,0.4042,0.4044,0.4085,0.4092,0.4097,0.4147,0.4157,0.4028,0.4028,0.4028,0,0.3721,0.3745,0.379,0.3806,0.3837,0.389,0.3909,0.393,0.3961,0.3985,0.3974,0.4023,0.4019,0.4056,0.4052,0.4046,0.4078,0.404,0.4087,0.4093,0.4099,0.4149,0.416,0.4028,0.4028,0.4028,0.4028,0,0.3695,0.3721,0.3722,0.3772,0.3803,0.3826,0.3879,0.3901,0.393,0.3963,0.401,0.4019,0.4053,0.4049,0.4048,0.4092,0.4105,0.4094,0.4087,0.4106,0.4157,0.4168,0.4028,0.4028,0.4028,0.4028,0,0,0.363,0.3698,0.37,0.3731,0.3798,0.3819,0.3854,0.3918,0.3966,0.3978,0.4042,0.4049,0.4076,0.409,0.4099,0.4119,0.4175,0.4117,0.4119,0.4169,0.4281,0.4289,0.4303,0.4173,0.4175,0.4177,0.43,0,0.3609,0.3636,0.3682,0.3712,0.374,0.381,0.3849,0.3907,0.3969,0.4033,0.4065,0.4125,0.4086,0.4123,0.4132,0.4188,0.4206,0.4144,0.4253,0.4257,0.4264,0.4316,0.4281,0.4388,0.4312,0.4314,0.4316,0,0.3579,0.361,0.364,0.3722,0.3742,0.3767,0.3874,0.3918,0.4024,0.4081,0.4143,0.4188,0.4241,0.4203,0.4283,0.4248,0.426,0.4282,0.4287,0.4308,0.4287,0.4356,0.4413,0.4384,0.4334,0.4333,0.4331,0,0.3525,0.3584,0.3612,0.3635,0.3726,0.376,0.3816,0.3927,0.3997,0.4128,0.4201,0.4271,0.4331,0.4356,0.439,0.4349,0.4486,0.4435,0.4453,0.4454,0.4453,0.4451,0.4498,0.4482,0.4481,0.4481,0.4481,0,0.3497,0.3516,0.3588,0.3602,0.3653,0.3729,0.3811,0.3895,0.4034,0.4119,0.4218,0.431,0.4372,0.445,0.4447,0.4509,0.4532,0.4482,0.4494,0.4451,0.4447,0.4444,0.4414,0.4486,0.4485,0.4484,0.4483,0,0.3433,0.3481,0.3513,0.3598,0.3627,0.366,0.3796,0.3858,0.4012,0.4135,0.4183,0.4366,0.4488,0.4548,0.4633,0.4601,0.4563,0.4653,0.4607,0.4609,0.4571,0.4543,0.4385,0.4226,0.47,0.4701,0.4702,0,0.3403,0.3412,0.3485,0.3501,0.3538,0.3607,0.3658,0.3822,0.3906,0.4155,0.4206,0.4401,0.4526,0.4697,0.4725,0.4781,0.4609,0.4734,0.4632,0.4594,0.4571,0.4328,0.4185,0.4635,0.4635,0.4635,0.4636,0,0.3341,0.3364,0.3387,0.3427,0.3466,0.3517,0.3611,0.3681,0.3873,0.4017,0.421,0.4353,0.4584,0.4678,0.4788,0.4794,0.4575,0.4738,0.4713,0.4548,0.4273,0.4119,0.4534,0.4638,0.4637,0.4637,0.4637,0.4637,0.328,0.3278,0.3307,0.3334,0.3372,0.3404,0.3416,0.3548,0.3684,0.387,0.4093,0.4287,0.459,0.478,0.4743,0.4756,0.4586,0.4673,0.4654,0.4417,0.4217,0.4642,0.4741,0.4741,0.4741,0.4742,0.4742,0,0.3191,0.3197,0.3214,0.3232,0.3219,0.3284,0.3355,0.3364,0.3465,0.3732,0.3913,0.4277,0.4485,0.4662,0.485,0.4739,0.4429,0.4622,0.4302,0.4166,0.4614,0.457,0.4617,0.4617,0.4617,0.4617,0.4617,0.4617,0.314,0.3113,0.3122,0.3069,0.3076,0.3027,0.3032,0.3088,0.3248,0.3483,0.3706,0.3949,0.4494,0.4912,0.4945,0.4794,0.44,0.4243,0.4096,0.4524,0.4526,0.4528,0.448,0.4508,0.4508,0.3492,0.3486,0.3481]},{"header":{"parameterUnit":"m.s-1","parameterCategory":2,"la1":30.2991,"la2":30.254,"lo1":-89.0895,"lo2":-89.0444,"dy":0.0017,"dx":0.0017,"nx":28,"ny":28,"refTime":"2025-01-11T03:00:00:Z","depth":"0","parameterNumber":3,"parameterNumberName":"V-component_of_CURRENTS"},"data":[0,0,0,0,0,0,0,0,0,0,0,0,0,0,0,0,0,0,0,0,0,0,0,0,0,0,0,0,0,0,0,0,0,0,0,0,0,0,0,0,0,0,0,0,0,0,0,0,0,0,0,0,0,0,0,0,0,0,0.0064,0.0063,0,-0.0042,-0.0043,-0.0045,-0.0128,-0.0129,-0.0129,-0.013,-0.0223,-0.0225,-0.0227,0,0,0,0,0,0,0,0,0,0,0,0,0,0.009,0.009,0.0064,0.0063,0.0062,-0.0042,-0.0043,-0.0045,-0.0128,-0.0129,-0.0129,-0.013,-0.0222,-0.0224,-0.0227,0,0,0,0,0,0,0,0,0,0,0,0,0,0.0038,0.0091,0.0065,0.0011,0.0005,-0.0041,-0.0043,-0.0046,-0.0128,-0.0129,-0.0129,-0.013,-0.0221,-0.0224,-0.0227,-0.023,0,0,-0.0236,-0.0238,0,0,0,0,0,0,0,0,0.0041,0.0037,0.002,0.0014,0.0008,-0.007,-0.0068,-0.0105,-0.0128,-0.0081,-0.013,-0.0131,-0.0168,-0.0175,-0.0198,-0.0234,-0.0238,-0.0237,-0.0238,-0.024,-0.024,0,0,0,0,0,0,0,0.0045,0.0041,0.0019,0.0019,0.0012,-0.0044,-0.0052,-0.0077,-0.0121,-0.0085,-0.009,-0.0097,-0.0171,-0.0195,-0.0201,-0.024,-0.0236,-0.0239,-0.0241,-0.0242,-0.0276,-0.0275,0,0,0,0,0,0,0.0071,0.0045,0.0023,0.0016,0.0027,-0.0043,-0.0052,-0.0047,-0.0121,-0.0132,-0.0096,-0.01,-0.019,-0.0197,-0.0204,-0.0193,-0.024,-0.0242,-0.0244,-0.0276,-0.0275,-0.0274,0,0,0,0,0,0,0.0073,0.0071,0.0027,0.0029,0.002,-0.0042,-0.0036,-0.0048,-0.0067,-0.0129,-0.0141,-0.0101,-0.019,-0.02,-0.0219,-0.0198,-0.0244,-0.0246,-0.0278,-0.0276,-0.0275,-0.0183,0,0,0,0,0,0,0.0074,0.0072,0.0082,0.0032,0.0021,0.0017,-0.0035,-0.005,-0.0068,-0.0075,-0.0136,-0.0147,-0.0192,-0.0214,-0.0222,-0.0203,-0.0249,-0.0279,-0.0277,-0.0275,-0.0187,-0.0179,-0.0172,0,0,0,0,0,0.0075,0.0107,0.0083,0.008,0.0038,0.0019,0.0009,-0.0042,-0.0067,-0.0064,-0.011,-0.0145,-0.0209,-0.0216,-0.0225,-0.0207,-0.028,-0.0277,-0.0275,-0.0191,-0.0181,-0.0172,0,0,0,0,0,0,0.0128,0.01,0.0073,0.0095,0.0063,0.0006,0.0007,-0.0029,-0.0065,-0.0068,-0.0134,-0.0147,-0.0158,-0.0191,-0.0197,-0.0211,-0.0249,-0.0249,-0.0181,-0.0172,-0.0164,-0.0147,-0.0251,0,0,0,0,0,0.0145,0.0155,0.0115,0.013,0.0122,0.0064,0.0049,0.0019,-0.0019,-0.0036,-0.0083,-0.0126,-0.0158,-0.0171,-0.0206,-0.0208,-0.0253,-0.0202,-0.0194,-0.0187,-0.0179,-0.0231,-0.0228,-0.0268,-0.0268,-0.0268,0,0,0.0167,0.0154,0.0158,0.0141,0.0111,0.0114,0.0053,0.0048,0.0046,-0.0037,-0.0051,-0.0099,-0.0153,-0.0164,-0.0171,-0.0187,-0.0199,-0.0185,-0.0178,-0.0174,-0.0229,-0.0225,-0.0222,-0.0266,-0.0267,-0.0267,0,0,0.0222,0.021,0.0234,0.0219,0.0193,0.0161,0.0168,0.012,0.0095,0.0076,0.0015,-0.0019,-0.0066,-0.0105,-0.013,-0.0095,-0.0158,-0.0102,-0.0045,-0.0096,-0.0093,-0.0091,-0.0142,-0.0146,-0.0095,-0.0095,-0.0095,0,0.0246,0.0274,0.0237,0.0257,0.0256,0.0193,0.0218,0.0187,0.0136,0.0125,0.0089,0.0008,-0.0039,-0.0058,-0.0053,-0.0077,-0.0118,-0.0076,-0.0085,-0.0085,-0.0084,-0.0138,-0.0143,-0.009,-0.0091,-0.0091,-0.0092,0,0.0313,0.0333,0.0352,0.0353,0.0348,0.0364,0.0323,0.031,0.027,0.023,0.0198,0.0118,0.0072,0.005,0.0006,-0.0008,-0.0042,-0.0072,-0.0108,-0.0075,-0.0133,-0.014,-0.0083,-0.0085,-0.0086,-0.0088,0,0,0.0368,0.0393,0.0397,0.0419,0.0404,0.0412,0.0416,0.0401,0.0411,0.0339,0.0336,0.0258,0.0206,0.0174,0.011,0.0061,0.002,0.0003,-0.0002,-0.0044,-0.0093,-0.0117,-0.0128,-0.0014,-0.0014,-0.0015,-0.0134,0,0.0426,0.0492,0.0484,0.0542,0.0574,0.0533,0.0542,0.052,0.0486,0.0466,0.0372,0.0345,0.0257,0.0238,0.0174,0.0062,0.0006,0.0055,-0.0122,-0.0127,-0.015,-0.0135,-0.0116,-0.0221,-0.0142,-0.0143,-0.0144,0,0.0491,0.0529,0.0599,0.0644,0.0653,0.0672,0.0687,0.0695,0.0649,0.0621,0.0566,0.0487,0.0405,0.0325,0.0145,0.018,0.0056,-0.0042,-0.005,-0.0108,-0.0163,-0.0243,-0.0237,-0.0494,-0.0155,-0.0154,-0.0153,0,0.0552,0.0612,0.0675,0.0689,0.0721,0.0741,0.0757,0.0739,0.0772,0.0725,0.0733,0.0605,0.0555,0.0382,0.0174,0.0159,-0.0031,-0.0077,-0.0219,-0.0223,-0.0259,-0.0265,-0.0519,-0.0204,-0.0203,-0.0203,-0.0203,0,0.0622,0.0672,0.0709,0.0745,0.0827,0.0818,0.0898,0.0888,0.0899,0.0956,0.0824,0.0832,0.0566,0.0423,0.0217,-0.0015,-0.0001,-0.0206,-0.0252,-0.0226,-0.0227,-0.0494,-0.0667,-0.0207,-0.0206,-0.0206,-0.0205,0,0.068,0.07,0.0784,0.0835,0.0861,0.0922,0.1014,0.1072,0.1061,0.1129,0.1122,0.1001,0.0817,0.0542,0.026,0.0059,-0.0332,-0.0259,-0.0212,-0.025,-0.0619,-0.0785,-0.1114,-0.1229,-0.0437,-0.0438,-0.0439,0,0.0715,0.0763,0.0861,0.0925,0.0955,0.1048,0.1118,0.1151,0.1234,0.1246,0.1294,0.1134,0.1069,0.064,0.0242,-0.0128,-0.0383,-0.0363,-0.0392,-0.0638,-0.0859,-0.0976,-0.1056,-0.0411,-0.0412,-0.0413,-0.0413,0,0.0786,0.0817,0.0889,0.1028,0.1118,0.124,0.1349,0.1446,0.1491,0.155,0.1605,0.1553,0.1134,0.0786,0.0255,-0.0031,-0.0566,-0.0387,-0.066,-0.0876,-0.1005,-0.1134,-0.0342,-0.0419,-0.0418,-0.0418,-0.0417,-0.0417,0.0835,0.0905,0.1006,0.1143,0.1256,0.1417,0.1553,0.1679,0.1835,0.1969,0.1881,0.1892,0.1327,0.0617,0.0166,-0.0613,-0.0639,-0.082,-0.1006,-0.1103,-0.1212,-0.0428,-0.0543,-0.0543,-0.0543,-0.0543,-0.0543,0,0.0897,0.0986,0.1117,0.1285,0.1435,0.1482,0.1699,0.186,0.2075,0.2208,0.2278,0.2049,0.1337,0.0588,-0.0459,-0.1067,-0.1305,-0.1424,-0.1598,-0.1652,-0.0963,-0.0955,-0.1142,-0.1142,-0.1142,-0.1142,-0.1141,-0.1141,0.0931,0.1067,0.1144,0.1403,0.1534,0.1765,0.191,0.2143,0.2321,0.2553,0.2614,0.2606,0.2075,0.0054,-0.1295,-0.1656,-0.211,-0.225,-0.2456,-0.2002,-0.1959,-0.1918,-0.195,-0.2342,-0.2344,-0.3025,-0.3033,-0.3039]}],[{"header":{"parameterUnit":"m.s-1","parameterCategory":2,"la1":30.2991,"la2":30.254,"lo1":-89.0895,"lo2":-89.0444,"dy":0.0017,"dx":0.0017,"nx":28,"ny":28,"refTime":"2025-01-11T03:00:00:Z","depth":"2","parameterNumber":2,"parameterNumberName":"U-component_of_CURRENTS"},"data":[0,0,0,0,0,0,0,0,0,0,0,0,0,0,0,0,0,0,0,0,0,0,0,0,0,0,0,0,0,0,0,0,0,0,0,0,0,0,0,0,0,0,0,0,0,0,0,0,0,0,0,0,0,0,0,0,0,0,0.3744,0.3745,0,0.3825,0.3826,0.3826,0.3847,0.3847,0.3847,0.3847,0.3858,0.3859,0.3859,0,0,0,0,0,0,0,0,0,0,0,0,0,0.3665,0.3665,0.3743,0.3745,0.3746,0.3825,0.3826,0.3827,0.3847,0.3847,0.3847,0.3847,0.3858,0.3859,0.3859,0,0,0,0,0,0,0,0,0,0,0,0,0,0.3714,0.3666,0.3743,0.3769,0.3772,0.3825,0.3826,0.3827,0.3847,0.3847,0.3847,0.3847,0.3858,0.3859,0.3859,0.3868,0,0,0.3861,0.3862,0,0,0,0,0,0,0,0,0.3711,0.3716,0.3764,0.3767,0.3771,0.3829,0.3803,0.3839,0.3847,0.3815,0.3847,0.3846,0.3845,0.3847,0.3858,0.3869,0.3869,0.3862,0.3862,0.3862,0.3862,0,0,0,0,0,0,0,0.3708,0.3713,0.3772,0.3765,0.377,0.3797,0.3803,0.381,0.3826,0.3817,0.382,0.3836,0.3846,0.3857,0.3858,0.3869,0.3861,0.3862,0.3863,0.3863,0.3885,0.3885,0,0,0,0,0,0,0.3703,0.371,0.3769,0.3775,0.3744,0.3799,0.3805,0.3808,0.3827,0.3832,0.3836,0.3836,0.3856,0.3857,0.3859,0.3871,0.3862,0.3863,0.3863,0.3885,0.3885,0.3885,0,0,0,0,0,0,0.37,0.3707,0.3766,0.3748,0.3758,0.38,0.3803,0.3809,0.3833,0.3843,0.3845,0.3854,0.3856,0.3858,0.3863,0.3871,0.3863,0.3864,0.3884,0.3885,0.3885,0.3894,0,0,0,0,0,0,0.3698,0.3705,0.3718,0.3747,0.3759,0.3797,0.3804,0.3811,0.3844,0.3845,0.3859,0.3859,0.3856,0.3862,0.3863,0.3872,0.3864,0.3884,0.3885,0.3885,0.3894,0.3895,0.3896,0,0,0,0,0,0.3694,0.3695,0.3717,0.3726,0.377,0.3797,0.3805,0.3833,0.3845,0.3853,0.3858,0.3859,0.3865,0.3862,0.3864,0.3873,0.3884,0.3885,0.3885,0.3893,0.3894,0.3896,0,0,0,0,0,0,0.365,0.3699,0.3723,0.3736,0.3771,0.3802,0.3815,0.3841,0.3855,0.3855,0.3862,0.3862,0.3877,0.387,0.3867,0.388,0.3875,0.3876,0.3881,0.3882,0.3883,0.3899,0.3865,0,0,0,0,0,0.3653,0.367,0.372,0.3726,0.3747,0.3788,0.3809,0.3829,0.3845,0.3853,0.3857,0.3863,0.388,0.3876,0.3886,0.3887,0.3914,0.3894,0.3895,0.3896,0.3909,0.3951,0.3957,0.3886,0.3886,0.3886,0,0,0.3636,0.3665,0.3674,0.372,0.3747,0.3771,0.3798,0.3824,0.3842,0.385,0.3857,0.3873,0.3884,0.3891,0.3895,0.3883,0.393,0.3896,0.3897,0.3911,0.3952,0.3959,0.3966,0.3887,0.3887,0.3887,0,0,0.3601,0.3637,0.3647,0.3679,0.3732,0.376,0.3772,0.3811,0.3829,0.3848,0.3863,0.3882,0.3887,0.39,0.3909,0.3921,0.3945,0.3921,0.3927,0.3966,0.3973,0.3979,0.4027,0.4037,0.3908,0.3908,0.3908,0,0.3586,0.3607,0.3651,0.367,0.3703,0.3755,0.3777,0.38,0.3831,0.3854,0.3846,0.3897,0.3896,0.3934,0.393,0.3926,0.3956,0.3921,0.3969,0.3976,0.3982,0.403,0.4041,0.3909,0.3909,0.3909,0.3908,0,0.3565,0.3593,0.3596,0.3645,0.3679,0.3703,0.3755,0.3781,0.3812,0.3843,0.3893,0.3902,0.3937,0.3935,0.3933,0.3979,0.399,0.3978,0.3969,0.399,0.4038,0.405,0.3909,0.3909,0.3909,0.3909,0,0,0.3508,0.3576,0.3579,0.361,0.3679,0.3699,0.3737,0.38,0.385,0.3865,0.3928,0.3939,0.3966,0.3979,0.3989,0.4008,0.4068,0.4005,0.4007,0.4058,0.4171,0.4174,0.4187,0.4066,0.4067,0.4069,0.4189,0,0.3491,0.3521,0.3566,0.3599,0.3628,0.3697,0.3737,0.3794,0.3856,0.3919,0.3953,0.4014,0.3978,0.4015,0.4025,0.408,0.4098,0.4037,0.4138,0.4142,0.4146,0.42,0.3851,0.3928,0.4201,0.4203,0.4204,0,0.3468,0.3499,0.3531,0.361,0.3631,0.3657,0.3763,0.3808,0.3912,0.397,0.4032,0.4077,0.4131,0.4095,0.4174,0.414,0.4152,0.4174,0.4179,0.4189,0.4167,0.395,0.394,0.4224,0.4222,0.4221,0.4219,0,0.3417,0.3477,0.3506,0.3529,0.3618,0.3653,0.3709,0.3818,0.3888,0.4018,0.4091,0.416,0.4221,0.4245,0.4279,0.424,0.4372,0.4322,0.4335,0.4336,0.4064,0.4038,0.4368,0.4368,0.4368,0.4368,0.4367,0,0.3393,0.3413,0.3484,0.3498,0.355,0.3625,0.3707,0.379,0.3927,0.4011,0.4109,0.4199,0.4262,0.4338,0.4335,0.4393,0.4417,0.4365,0.4374,0.4058,0.4032,0.43,0.429,0.4372,0.4371,0.437,0.4369,0,0.3332,0.338,0.3412,0.3496,0.3526,0.356,0.3695,0.3756,0.3908,0.4029,0.4078,0.4255,0.4374,0.4433,0.4515,0.4482,0.4528,0.4529,0.417,0.4137,0.4448,0.4437,0.4566,0.4568,0.4569,0.457,0.457,0,0.3304,0.3313,0.3387,0.3403,0.3441,0.3511,0.3562,0.3724,0.3805,0.4048,0.4097,0.4289,0.4402,0.4564,0.4537,0.4575,0.4599,0.4274,0.4131,0.4475,0.4472,0.4459,0.4448,0.3765,0.3759,0.3754,0.375,0,0.3244,0.3268,0.3292,0.3332,0.3372,0.3422,0.3515,0.3584,0.3772,0.3907,0.4092,0.4223,0.4397,0.4311,0.4392,0.4349,0.4245,0.4184,0.4626,0.3793,0.3736,0.3728,0.3738,0.3707,0.3711,0.3714,0.3717,0.3718,0.3186,0.3184,0.3214,0.3243,0.3281,0.3311,0.3322,0.3431,0.3555,0.3682,0.3918,0.398,0.4062,0.403,0.3933,0.3844,0.4129,0.3916,0.3923,0.3937,0.3847,0.3797,0.3763,0.3768,0.3772,0.3775,0.3778,0,0.3089,0.3106,0.3124,0.3142,0.3115,0.3194,0.3263,0.3222,0.3286,0.344,0.3564,0.3356,0.3375,0.3432,0.3251,0.3305,0.318,0.3161,0.2935,0.2985,0.3028,0.2881,0.2547,0.2542,0.2538,0.2534,0,0,0.3037,0.3005,0.3013,0.2952,0.2971,0.2892,0.2897,0.2868,0.2918,0.2898,0.2912,0.3181,0.3358,0.2881,0.2861,0.2662,0.278,0.2564,0.3566,0.3351,0.3387,0.3504,0.3345,0,0,0,0,0]},{"header":{"parameterUnit":"m.s-1","parameterCategory":2,"la1":30.2991,"la2":30.254,"lo1":-89.0895,"lo2":-89.0444,"dy":0.0017,"dx":0.0017,"nx":28,"ny":28,"refTime":"2025-01-11T03:00:00:Z","depth":"2","parameterNumber":3,"parameterNumberName":"V-component_of_CURRENTS"},"data":[0,0,0,0,0,0,0,0,0,0,0,0,0,0,0,0,0,0,0,0,0,0,0,0,0,0,0,0,0,0,0,0,0,0,0,0,0,0,0,0,0,0,0,0,0,0,0,0,0,0,0,0,0,0,0,0,0,0,0.0144,0.0143,0,0.0036,0.0034,0.0033,-0.0048,-0.0049,-0.0049,-0.0049,-0.0142,-0.0144,-0.0146,0,0,0,0,0,0,0,0,0,0,0,0,0,0.0168,0.0168,0.0144,0.0143,0.0142,0.0036,0.0034,0.0032,-0.0048,-0.0049,-0.0049,-0.005,-0.0142,-0.0144,-0.0147,0,0,0,0,0,0,0,0,0,0,0,0,0,0.0115,0.0168,0.0144,0.0091,0.0086,0.0036,0.0034,0.0032,-0.0048,-0.0049,-0.0049,-0.005,-0.0141,-0.0144,-0.0147,-0.0154,0,0,-0.0157,-0.0158,0,0,0,0,0,0,0,0,0.0119,0.0114,0.01,0.0095,0.0089,0.001,0.0008,-0.0028,-0.0048,-0.0001,-0.0049,-0.005,-0.0087,-0.0095,-0.0119,-0.0158,-0.0162,-0.0157,-0.0159,-0.016,-0.0161,0,0,0,0,0,0,0,0.0122,0.0118,0.0098,0.0099,0.0092,0.0035,0.0027,0.0,-0.0042,-0.0005,-0.001,-0.0017,-0.0091,-0.0116,-0.0122,-0.0164,-0.0157,-0.0159,-0.0161,-0.0163,-0.0203,-0.0202,0,0,0,0,0,0,0.0149,0.0122,0.0101,0.0095,0.0106,0.0036,0.0027,0.0033,-0.0042,-0.0053,-0.0016,-0.002,-0.011,-0.0118,-0.0125,-0.0118,-0.016,-0.0163,-0.0165,-0.0204,-0.0203,-0.0202,0,0,0,0,0,0,0.0151,0.0149,0.0106,0.0107,0.0098,0.0037,0.0043,0.0031,0.001,-0.005,-0.0062,-0.0023,-0.0111,-0.0121,-0.0141,-0.0123,-0.0164,-0.0167,-0.0205,-0.0203,-0.0202,-0.0116,0,0,0,0,0,0,0.0152,0.0151,0.0158,0.011,0.0099,0.0092,0.0044,0.003,0.0008,0.0002,-0.006,-0.007,-0.0112,-0.0136,-0.0144,-0.0128,-0.017,-0.0206,-0.0204,-0.0203,-0.012,-0.0112,-0.0105,0,0,0,0,0,0.0153,0.0181,0.0159,0.0156,0.0114,0.0094,0.0083,0.0033,0.0009,0.0009,-0.0035,-0.0068,-0.0132,-0.0138,-0.0148,-0.0132,-0.0206,-0.0205,-0.0203,-0.0123,-0.0114,-0.0105,0,0,0,0,0,0,0.02,0.0174,0.0149,0.0168,0.0137,0.0082,0.0079,0.0044,0.0006,0.0004,-0.0059,-0.0072,-0.0085,-0.0117,-0.0122,-0.0139,-0.0174,-0.0174,-0.011,-0.0101,-0.0094,-0.0076,-0.0172,0,0,0,0,0,0.0214,0.0224,0.0186,0.0199,0.019,0.0134,0.0117,0.0088,0.0051,0.0033,-0.0012,-0.0054,-0.0086,-0.0099,-0.0134,-0.0139,-0.0183,-0.0134,-0.0127,-0.0121,-0.0112,-0.0164,-0.0161,-0.0196,-0.0196,-0.0196,0,0,0.0234,0.0222,0.0226,0.0208,0.0179,0.0181,0.0122,0.0114,0.0112,0.0032,0.0017,-0.003,-0.0082,-0.0095,-0.0102,-0.0117,-0.0134,-0.0118,-0.0112,-0.0107,-0.0162,-0.0158,-0.0155,-0.0195,-0.0195,-0.0195,0,0,0.0285,0.0272,0.0294,0.0279,0.0253,0.0223,0.0228,0.018,0.0155,0.0136,0.0078,0.0043,-0.0004,-0.0041,-0.0065,-0.0034,-0.0096,-0.0042,0.0012,-0.0038,-0.0035,-0.0034,-0.0085,-0.0089,-0.0035,-0.0035,-0.0035,0,0.0305,0.0332,0.0296,0.0314,0.0313,0.0251,0.0275,0.0243,0.0193,0.0183,0.0148,0.0068,0.0021,0.0002,0.0007,-0.0017,-0.0058,-0.0016,-0.0028,-0.0028,-0.0028,-0.008,-0.0086,-0.0031,-0.0031,-0.0032,-0.0032,0,0.0368,0.0387,0.0404,0.0406,0.04,0.0414,0.0374,0.036,0.0321,0.0283,0.0249,0.0171,0.0127,0.0104,0.0062,0.0047,0.0013,-0.0016,-0.0049,-0.0019,-0.0076,-0.0083,-0.0024,-0.0026,-0.0027,-0.0028,0,0,0.0419,0.0443,0.0447,0.0469,0.0453,0.0461,0.0464,0.0449,0.0458,0.0387,0.0383,0.0306,0.0254,0.0224,0.0161,0.0112,0.007,0.0056,0.0051,0.0009,-0.0043,-0.0069,-0.008,0.0036,0.0036,0.0035,-0.0084,0,0.0475,0.0538,0.053,0.0587,0.0618,0.0578,0.0586,0.0564,0.0531,0.0511,0.0418,0.039,0.0304,0.0285,0.0221,0.0111,0.0056,0.0105,-0.0069,-0.0074,-0.0098,-0.0087,-0.0053,-0.0157,-0.0091,-0.0092,-0.0093,0,0.0536,0.0573,0.0642,0.0687,0.0696,0.0714,0.0729,0.0736,0.069,0.0662,0.0608,0.0529,0.0447,0.0369,0.0191,0.0226,0.0104,0.0007,-0.0001,-0.0058,-0.0112,-0.0177,-0.0173,-0.0106,-0.0105,-0.0104,-0.0103,0,0.0595,0.0655,0.0716,0.073,0.0762,0.0782,0.0797,0.0778,0.0811,0.0764,0.0771,0.0644,0.0594,0.0423,0.0218,0.0204,0.0015,-0.0029,-0.0171,-0.0175,-0.0197,-0.0201,-0.0155,-0.0155,-0.0154,-0.0154,-0.0154,0,0.0663,0.0713,0.0749,0.0785,0.0866,0.0857,0.0935,0.0926,0.0936,0.099,0.086,0.0866,0.0605,0.0462,0.0259,0.0029,0.0044,-0.0159,-0.0205,-0.0166,-0.0165,-0.0161,-0.016,-0.0159,-0.0158,-0.0157,-0.0156,0,0.0721,0.074,0.0823,0.0874,0.09,0.0959,0.105,0.1106,0.1094,0.116,0.1153,0.1031,0.0847,0.0576,0.0297,0.01,-0.0128,-0.0215,-0.0153,-0.0188,-0.0299,-0.0292,-0.0388,-0.039,-0.0391,-0.0393,-0.0394,0,0.0755,0.0802,0.0899,0.0962,0.0991,0.1083,0.1153,0.1184,0.1265,0.1274,0.132,0.1159,0.1088,0.0664,0.0277,-0.0088,-0.0134,-0.0306,-0.033,-0.0287,-0.0322,-0.0313,-0.0304,-0.0331,-0.0332,-0.0332,-0.0333,0,0.0825,0.0855,0.0926,0.1063,0.1152,0.1273,0.138,0.1474,0.1517,0.157,0.1617,0.156,0.1148,0.0788,0.0266,0.0011,-0.0249,-0.0326,-0.0299,-0.0269,-0.0241,-0.0273,-0.0265,-0.0336,-0.0336,-0.0336,-0.0335,-0.0335,0.0873,0.0942,0.1041,0.1176,0.1288,0.1446,0.1579,0.1691,0.1837,0.1928,0.1852,0.1769,0.1332,0.0681,0.0224,-0.0277,-0.0253,-0.0423,-0.0418,-0.0414,-0.0378,-0.0353,-0.0463,-0.0464,-0.0464,-0.0464,-0.0464,0,0.0935,0.1021,0.1151,0.1316,0.1461,0.151,0.1722,0.1853,0.2041,0.2084,0.2117,0.1712,0.1282,0.0768,0.0041,-0.0381,-0.042,-0.0528,-0.0471,-0.0463,-0.0458,-0.0422,-0.0521,-0.0522,-0.0524,-0.0525,0,0,0.0969,0.1102,0.1179,0.143,0.1559,0.1775,0.1915,0.2087,0.2182,0.2255,0.2195,0.2062,0.1443,0.0915,0.0326,-0.0094,-0.0184,-0.019,-0.0098,0.0047,0.0057,-0.0353,-0.0284,0,0,0,0,0]}],[{"header":{"parameterUnit":"m.s-1","parameterCategory":2,"la1":30.2991,"la2":30.254,"lo1":-89.0895,"lo2":-89.0444,"dy":0.0017,"dx":0.0017,"nx":28,"ny":28,"refTime":"2025-01-11T03:00:00:Z","depth":"4","parameterNumber":2,"parameterNumberName":"U-component_of_CURRENTS"},"data":[0,0,0,0,0,0,0,0,0,0,0,0,0,0,0,0,0,0,0,0,0,0,0,0,0,0,0,0,0,0,0,0,0,0,0,0,0,0,0,0,0,0,0,0,0,0,0,0,0,0,0,0,0,0,0,0,0,0,0.2146,0.2148,0,0.2256,0.2257,0.2258,0.2359,0.2361,0.2363,0.2365,0.2488,0.249,0.2491,0,0,0,0,0,0,0,0,0,0,0,0,0,0.1958,0.196,0.2146,0.2148,0.215,0.2256,0.2257,0.2258,0.2359,0.2361,0.2364,0.2366,0.2488,0.2489,0.2491,0,0,0,0,0,0,0,0,0,0,0,0,0,0.2045,0.1961,0.2146,0.2218,0.2226,0.2256,0.2257,0.2258,0.2359,0.2361,0.2364,0.2367,0.2487,0.2489,0.2492,0.2452,0,0,0.2499,0.25,0,0,0,0,0,0,0,0,0.204,0.2051,0.2205,0.2213,0.2222,0.2302,0.2236,0.2326,0.2358,0.2302,0.2365,0.2368,0.2429,0.2436,0.2442,0.2457,0.2463,0.2499,0.2501,0.2502,0.2502,0,0,0,0,0,0,0,0.2034,0.2046,0.2183,0.2207,0.2217,0.2223,0.2238,0.2253,0.2344,0.2307,0.2316,0.2337,0.2433,0.2439,0.2446,0.2465,0.2499,0.2501,0.2503,0.2504,0.269,0.2693,0,0,0,0,0,0,0.2034,0.2041,0.218,0.2187,0.2143,0.2225,0.2241,0.2269,0.2344,0.236,0.2335,0.2342,0.2434,0.2443,0.2451,0.2592,0.2502,0.2504,0.2505,0.2687,0.2691,0.2695,0,0,0,0,0,0,0.2029,0.2045,0.2176,0.2121,0.2139,0.2226,0.2255,0.227,0.2334,0.2366,0.2382,0.2393,0.2437,0.2447,0.254,0.2591,0.2505,0.2507,0.2682,0.2688,0.2693,0.2757,0,0,0,0,0,0,0.2023,0.2043,0.2073,0.2121,0.2143,0.2247,0.2254,0.227,0.2343,0.2354,0.2419,0.2431,0.244,0.2536,0.2542,0.2593,0.2509,0.2678,0.2685,0.2691,0.275,0.2764,0.2775,0,0,0,0,0,0.2016,0.2053,0.2074,0.2092,0.2178,0.225,0.2262,0.2326,0.2343,0.2389,0.2444,0.2432,0.2583,0.2541,0.2547,0.2599,0.2675,0.2683,0.2691,0.2745,0.2761,0.2775,0,0,0,0,0,0,0.2003,0.2069,0.2093,0.2153,0.222,0.2271,0.2327,0.235,0.2423,0.2451,0.2466,0.2482,0.2589,0.2588,0.2541,0.2679,0.263,0.2639,0.2669,0.2685,0.2697,0.2679,0.2511,0,0,0,0,0,0.2007,0.2056,0.2118,0.2178,0.2216,0.2273,0.2313,0.2357,0.242,0.2457,0.2506,0.2561,0.2612,0.2646,0.2697,0.2753,0.275,0.2798,0.2811,0.2821,0.2816,0.2859,0.2873,0.2721,0.2721,0.272,0,0,0.2019,0.2067,0.2096,0.2179,0.2238,0.2291,0.2307,0.2396,0.2446,0.2455,0.2563,0.2613,0.2643,0.273,0.2775,0.274,0.2871,0.2831,0.2839,0.2828,0.2868,0.2883,0.2895,0.2726,0.2725,0.2724,0,0,0.206,0.2118,0.2165,0.2219,0.2316,0.2349,0.2384,0.2469,0.2524,0.2614,0.2645,0.2726,0.2804,0.2836,0.2854,0.296,0.2944,0.2994,0.3027,0.307,0.3082,0.3092,0.3126,0.3138,0.2988,0.2989,0.2989,0,0.2074,0.2136,0.2195,0.2253,0.2303,0.2377,0.2434,0.2489,0.2596,0.2643,0.2674,0.2815,0.2845,0.2919,0.2968,0.2983,0.3007,0.2959,0.3082,0.3092,0.3101,0.3133,0.3146,0.2993,0.2992,0.2992,0.2991,0,0.213,0.2192,0.2238,0.2323,0.2384,0.2459,0.2534,0.2616,0.2686,0.2732,0.2864,0.2921,0.2998,0.303,0.3027,0.3117,0.3115,0.3097,0.303,0.3119,0.3149,0.3161,0.2998,0.2997,0.2996,0.2995,0,0,0.2123,0.2247,0.2265,0.2309,0.2427,0.2479,0.258,0.2675,0.2749,0.2856,0.2948,0.3041,0.3086,0.3111,0.3138,0.3171,0.3261,0.3167,0.3167,0.3176,0.3366,0.3169,0.3163,0.327,0.3273,0.3274,0.3366,0,0.2153,0.2246,0.2307,0.2404,0.2456,0.2549,0.2632,0.273,0.2831,0.2944,0.3011,0.3123,0.3111,0.318,0.3209,0.3265,0.3295,0.3238,0.3299,0.3301,0.3093,0.317,0.3281,0.3374,0.3377,0.3379,0.338,0,0.2168,0.2232,0.2323,0.2438,0.2475,0.2548,0.2697,0.2784,0.2935,0.3021,0.3128,0.3198,0.3292,0.327,0.3369,0.3342,0.3358,0.3377,0.3381,0.3174,0.3124,0.3267,0.3402,0.34,0.3398,0.3397,0.3396,0,0.2104,0.2233,0.2305,0.2346,0.2491,0.2567,0.2661,0.2816,0.2909,0.3091,0.3181,0.3292,0.3383,0.3421,0.3464,0.3441,0.3556,0.3521,0.3351,0.3339,0.3457,0.3445,0.3571,0.3571,0.3571,0.357,0.357,0,0.2074,0.2135,0.229,0.2326,0.2432,0.2551,0.2688,0.2802,0.2979,0.3076,0.3223,0.3307,0.343,0.3504,0.351,0.3465,0.3592,0.3361,0.3346,0.3488,0.3479,0.3467,0.3453,0.3574,0.3573,0.3572,0.3572,0,0.1981,0.2084,0.2171,0.2339,0.2403,0.2483,0.2693,0.2776,0.297,0.3107,0.3175,0.336,0.3451,0.3534,0.3618,0.3509,0.35,0.3449,0.3616,0.3609,0.3245,0.3235,0.3261,0.3255,0.3249,0.3245,0.3241,0,0.1935,0.1974,0.2159,0.2216,0.2303,0.2448,0.2537,0.2752,0.2838,0.3097,0.3133,0.3315,0.3402,0.3361,0.3465,0.3468,0.342,0.3391,0.3283,0.3229,0.3213,0.3211,0.3208,0.3233,0.3231,0.323,0.3229,0,0.184,0.1928,0.1998,0.212,0.2225,0.2325,0.2475,0.2526,0.2753,0.2948,0.302,0.3076,0.3173,0.3227,0.3262,0.3251,0.3395,0.3335,0.3344,0.3242,0.3195,0.3184,0.3188,0.321,0.3213,0.3214,0.3216,0,0.1773,0.1797,0.1903,0.1992,0.2113,0.2163,0.2266,0.2362,0.2478,0.2756,0.2771,0.2956,0.3134,0.3116,0.3146,0.313,0.307,0.2948,0.2977,0.2999,0.2868,0.2768,0.2639,0,0,0,0,0,0.1689,0.1696,0.1765,0.1845,0.1954,0.2026,0.2197,0.2302,0.2522,0.2498,0.2631,0.2704,0.2764,0.2869,0.2798,0.3032,0.3083,0.2935,0.2959,0.3108,0.3129,0.2999,0,0,0,0,0,0,0.1629,0.1683,0.1706,0.1701,0.1728,0.1825,0.1927,0.2075,0.2082,0.2313,0.2362,0.2531,0.2634,0.2767,0.274,0.277,0.2727,0.3059,0.3052,0.3096,0.3115,0.3132,0.3006,0,0,0,0,0]},{"header":{"parameterUnit":"m.s-1","parameterCategory":2,"la1":30.2991,"la2":30.254,"lo1":-89.0895,"lo2":-89.0444,"dy":0.0017,"dx":0.0017,"nx":28,"ny":28,"refTime":"2025-01-11T03:00:00:Z","depth":"4","parameterNumber":3,"parameterNumberName":"V-component_of_CURRENTS"},"data":[0,0,0,0,0,0,0,0,0,0,0,0,0,0,0,0,0,0,0,0,0,0,0,0,0,0,0,0,0,0,0,0,0,0,0,0,0,0,0,0,0,0,0,0,0,0,0,0,0,0,0,0,0,0,0,0,0,0,0.026,0.0259,0,0.0199,0.0198,0.0197,0.0153,0.0153,0.0153,0.0152,0.0099,0.0098,0.0097,0,0,0,0,0,0,0,0,0,0,0,0,0,0.0283,0.0283,0.026,0.0259,0.0259,0.0199,0.0198,0.0197,0.0153,0.0153,0.0152,0.0152,0.0099,0.0098,0.0097,0,0,0,0,0,0,0,0,0,0,0,0,0,0.0251,0.0283,0.026,0.0231,0.0228,0.0199,0.0198,0.0197,0.0153,0.0153,0.0152,0.0152,0.01,0.0098,0.0096,0.0092,0,0,0.0091,0.009,0,0,0,0,0,0,0,0,0.0253,0.025,0.0236,0.0233,0.0229,0.0185,0.0187,0.0163,0.0153,0.018,0.0152,0.0152,0.013,0.0126,0.0112,0.0089,0.0087,0.0091,0.009,0.0089,0.0088,0,0,0,0,0,0,0,0.0255,0.0252,0.0234,0.0235,0.0231,0.0202,0.0197,0.0181,0.0156,0.0177,0.0174,0.017,0.0128,0.0114,0.0111,0.0086,0.0091,0.0089,0.0088,0.0087,0.0034,0.0033,0,0,0,0,0,0,0.027,0.0255,0.0236,0.0232,0.0242,0.0202,0.0197,0.0198,0.0156,0.015,0.0171,0.0169,0.0117,0.0113,0.0109,0.0104,0.0089,0.0087,0.0086,0.0034,0.0034,0.0033,0,0,0,0,0,0,0.027,0.0269,0.0238,0.0243,0.0237,0.0203,0.0204,0.0197,0.0187,0.0151,0.0145,0.0168,0.0117,0.0111,0.0093,0.0102,0.0086,0.0085,0.0034,0.0034,0.0033,0.0093,0,0,0,0,0,0,0.0271,0.0269,0.0279,0.0244,0.0238,0.0226,0.0204,0.0196,0.0186,0.0182,0.0147,0.0141,0.0116,0.0096,0.0092,0.0099,0.0083,0.0035,0.0034,0.0034,0.0091,0.0094,0.0097,0,0,0,0,0,0.0272,0.0285,0.028,0.0277,0.025,0.0227,0.0221,0.0193,0.0186,0.0183,0.0157,0.0143,0.0089,0.0095,0.0089,0.0096,0.0035,0.0034,0.0034,0.009,0.0094,0.0097,0,0,0,0,0,0,0.0298,0.0281,0.0274,0.0281,0.0259,0.022,0.0218,0.0201,0.0177,0.0178,0.0143,0.0135,0.0119,0.0098,0.0105,0.0076,0.0058,0.0056,0.0103,0.0106,0.0109,0.0131,0.0082,0,0,0,0,0,0.031,0.0317,0.029,0.0296,0.0289,0.0256,0.0246,0.0228,0.0202,0.0191,0.0165,0.0136,0.0111,0.0102,0.0074,0.0066,0.0034,0.0063,0.0066,0.0069,0.0081,0.0034,0.0035,0.0031,0.0031,0.0031,0,0,0.0322,0.0314,0.0317,0.0302,0.0284,0.0284,0.0249,0.0239,0.0239,0.0191,0.0184,0.0147,0.0109,0.0093,0.0084,0.0079,0.005,0.0068,0.0071,0.0082,0.0034,0.0034,0.0035,0.003,0.003,0.003,0,0,0.0348,0.0342,0.0356,0.0345,0.0328,0.0308,0.031,0.0276,0.0262,0.0248,0.021,0.0179,0.0145,0.0116,0.0099,0.0102,0.0064,0.0091,0.0131,0.0085,0.0086,0.0086,0.0038,0.0033,0.0097,0.0097,0.0097,0,0.0362,0.0381,0.0354,0.0365,0.0368,0.0326,0.0343,0.032,0.0284,0.0279,0.0254,0.0192,0.0157,0.0138,0.0134,0.0112,0.0077,0.0125,0.0091,0.009,0.0089,0.004,0.0034,0.01,0.0099,0.0099,0.0099,0,0.0397,0.0415,0.0421,0.0427,0.0423,0.0428,0.0401,0.039,0.0368,0.0344,0.0313,0.0252,0.022,0.0195,0.0167,0.0145,0.0119,0.0098,0.0088,0.0094,0.0041,0.0034,0.0104,0.0103,0.0102,0.0101,0,0,0.0423,0.0444,0.0448,0.0472,0.0461,0.0464,0.0465,0.0456,0.0467,0.041,0.0411,0.0344,0.0307,0.0283,0.0233,0.0189,0.0143,0.0148,0.0145,0.0113,0.0039,0.0029,0.0019,0.0117,0.0116,0.0116,0.0003,0,0.046,0.0505,0.0503,0.0549,0.0572,0.0548,0.0555,0.0541,0.0517,0.0503,0.0429,0.0408,0.0342,0.0328,0.0272,0.0179,0.0128,0.0176,0.0029,0.0024,0.0024,0.0012,0.0114,-0.0003,-0.0005,-0.0006,-0.0007,0,0.0499,0.0528,0.0582,0.0625,0.0632,0.0652,0.0669,0.0675,0.064,0.062,0.0577,0.0516,0.0446,0.0387,0.0232,0.0265,0.0162,0.008,0.0073,0.0043,0.0001,-0.0011,-0.0021,-0.002,-0.0019,-0.0018,-0.0017,0,0.0537,0.0587,0.0639,0.0652,0.0683,0.0707,0.0724,0.0712,0.0738,0.0702,0.0707,0.0602,0.056,0.0417,0.0244,0.0239,0.0066,0.0036,-0.0076,-0.0079,-0.006,-0.0059,-0.0076,-0.0076,-0.0075,-0.0075,-0.0075,0,0.0578,0.0623,0.0666,0.0695,0.0767,0.0766,0.0836,0.0831,0.084,0.0878,0.0779,0.0768,0.0566,0.0441,0.0273,0.008,0.0084,-0.0068,-0.0106,-0.0035,-0.003,-0.0066,-0.0064,-0.0079,-0.0078,-0.0077,-0.0077,0,0.0611,0.0636,0.0707,0.0761,0.0791,0.0843,0.0931,0.0974,0.0969,0.1013,0.1008,0.0896,0.0728,0.0514,0.0276,0.0131,-0.006,-0.0132,-0.0036,-0.0067,-0.0185,-0.0178,-0.0267,-0.0268,-0.0269,-0.027,-0.0271,0,0.0629,0.0669,0.0765,0.0822,0.0856,0.0942,0.1002,0.1038,0.1091,0.1089,0.1108,0.097,0.0863,0.0528,0.029,-0.0035,-0.0086,-0.0191,-0.0196,-0.0175,-0.0204,-0.0195,-0.0187,-0.0272,-0.0273,-0.0273,-0.0273,0,0.0667,0.0704,0.0764,0.0884,0.0968,0.107,0.1159,0.1209,0.1244,0.1242,0.1194,0.1013,0.0821,0.0542,0.0289,0.0054,-0.0126,-0.0203,-0.0203,-0.0209,-0.0183,-0.0208,-0.0199,-0.0277,-0.0276,-0.0276,-0.0276,0,0.0697,0.0748,0.0835,0.0941,0.1053,0.1158,0.1207,0.1262,0.131,0.1297,0.1278,0.1062,0.0937,0.0588,0.0357,0.0122,0.0053,-0.0032,-0.0042,-0.0041,0.0051,0.0118,0.0088,0,0,0,0,0,0.0718,0.0783,0.0886,0.1004,0.1117,0.1189,0.1293,0.1329,0.1362,0.1341,0.1314,0.1133,0.0786,0.0638,0.0403,0.0316,0.0001,0.0029,-0.0104,-0.0297,-0.0293,-0.0225,0,0,0,0,0,0,0.0734,0.083,0.0885,0.1036,0.1128,0.126,0.133,0.1355,0.1345,0.1336,0.1162,0.1068,0.0736,0.0926,0.0399,0.0327,0.0206,-0.0131,-0.0137,-0.03,-0.0296,-0.0292,-0.0221,0,0,0,0,0]}]]